BEIDOU-3 IGSO-1

Last updated on Tue Oct 15 2024 00:02:41 GMT+0000 (Coordinated Universal Time)

1 44204U 19023A 24288.21710208 -.00000213 00000+0 00000+0 0 9999 2 44204 57.8214 43.9849 0024689 207.0172 329.4213 1.00265365 1089
UTC large
Height (km)
Speed (km/s)
/
Latitude / Longitude
Inclination (degrees)
Orbital Period (minutes)
Azimuth
Elevation
Range (km)
Doppler Factor

Next 0 passes for location: London (51.5072 / 0.1276)

Sorry there are no passes over London.